{"data":{"norad_id":68268,"epoch":"2026-09-20T00:34:13.786752Z","epoch_age_seconds":92477,"freshness":"FRESH","line1":"1 68268U 26055G   26263.02377068  .00013849  00000+0  41993-3 0  9993","line2":"2 68268  53.1601 131.6574 0001161 104.9750 255.1381 15.34423764 29757","mean_motion":15.34423764,"eccentricity":0.0001161,"inclination_deg":53.1601,"raan_deg":131.6574,"arg_perigee_deg":104.975,"mean_anomaly_deg":255.1381,"bstar":0.00041993,"rev_number":2975,"period_min":93.846304637915,"perigee_km":461.83839615098,"apogee_km":463.42682285431,"semimajor_km":6840.7696095026,"source":"CELESTRAK","updated_at":"2026-09-20T09:00:43.847024Z"}}